Content
SEND FEEDBACK

Daily
Averages
Monthly
Summary
United States of America

WILMINGTON, NORTH CAROLINA


Home > North America > United States > North Carolina
Elevation: 72 feet     Latitude: 34 16N     Longitude: 077 54W

WEATHER
 
SELECT A DAY
Number of Records: 212,308;   Date Range: 1/1/95 - 10/21/14
 
SHARE

PRINT THIS DATA

[ ← Previous Day ]
WEATHER ALMANAC - FEBRUARY 26, 2013
[ Next Day → ]
[ °C ]   °F
Weather ElementAverageHighLow
Temperature59.3 °F68 °F (5:49 pm)42.8 °F (1:51 am)
Dewpoint55.7 °F64.9 °F (6:53 pm)33.1 °F (1:53 am)
Humidity88.1 %100 % (8:02 am)68 % (1:53 am)
Barometer29.78 in30.05 in (1:51 am)29.61 in (5:49 pm)
Wind Speed13.6 mph19.6 mph (1:21 pm)
Wind Gust34.5 mph (1:21 pm)
Weather ElementAverage
Visibility6 mi
Wind DirectionESE (128.6 °)

Weather ElementTotal
Precipitation2.76 in
Heating Degree Days9.6 (Base 65)
Growing Degree Days5.4 (Base 50)
Averaged from 44 records on February 26, 2013
WEATHER CONDITIONS BREAKOUT
WIND DIRECTION BREAKOUT
WEATHER BY HOUR - FEBRUARY 26, 2013
[ °C ]   °F
Local TimeTemperatureDewpointHumidityBarometerVisibilityWind DirectionWind SpeedGust SpeedPrecipitationEventsConditions
1:51 AM42.8 °F33.8 °F70 %30.05 in10.0 miNE (40°)8.1 mphOvercast
1:53 AM43.0 °F33.1 °F68 %30.05 in10.0 miNE (50°)6.9 mphOvercast
2:53 AM43.0 °F35.1 °F74 %30.03 in10.0 miNE (40°)5.8 mphOvercast
3:16 AM42.8 °F35.6 °F76 %30.01 in10.0 miNE (40°)6.9 mphOvercast
3:53 AM44.1 °F37.9 °F79 %29.99 in10.0 miNE (50°)5.8 mphOvercast
4:53 AM46.9 °F42.1 °F83 %29.99 in9.0 miENE (70°)8.1 mphOvercast
5:53 AM50.0 °F46.0 °F86 %29.95 in10.0 miENE (70°)13.8 mph19.6 mph0.00 inRainLight Rain
6:53 AM52.0 °F48.9 °F89 %29.95 in7.0 miENE (70°)10.4 mph0.02 inRainLight Rain
7:02 AM51.8 °F48.2 °F88 %29.95 in8.0 miENE (70°)12.7 mph20.7 mph0.00 inRainLight Rain
7:08 AM51.8 °F48.2 °F88 %29.95 in6.0 miEast (80°)11.5 mph0.00 inRainLight Rain
7:20 AM53.6 °F50.0 °F88 %29.94 in5.0 miENE (70°)10.4 mph0.01 inRainLight Rain
7:41 AM53.6 °F51.8 °F94 %29.94 in2.5 miENE (70°)12.7 mph19.6 mphRainRain
7:53 AM54.0 °F52.0 °F93 %29.93 in3.0 miENE (70°)12.7 mph20.7 mph0.07 inRainRain
8:02 AM53.6 °F53.6 °F100 %29.92 in2.5 miENE (70°)13.8 mph20.7 mph0.01 inRainLight Rain
8:53 AM55.9 °F55.0 °F97 %29.92 in2.5 miENE (70°)16.1 mph23.0 mph0.07 inRainLight Rain
9:53 AM57.9 °F55.9 °F93 %29.88 in2.0 miEast (90°)17.3 mph25.3 mph0.12 inRainRain
10:38 AM59.0 °F57.2 °F94 %29.85 in3.0 miEast (90°)16.1 mph26.5 mph0.15 inRainLight Rain
10:53 AM59.0 °F57.0 °F93 %29.85 in2.5 miEast (90°)15.0 mph23.0 mph0.19 inRainHeavy Rain
11:30 AM60.8 °F57.2 °F88 %29.83 in1.5 miEast (100°)12.7 mph25.3 mph0.22 inRainHeavy Rain
11:53 AM61.0 °F59.0 °F93 %29.80 in1.8 miESE (110°)18.4 mph33.4 mph0.42 inRainHeavy Rain
12:53 PM63.0 °F61.0 °F93 %29.73 in1.8 miSE (140°)17.3 mph32.2 mph0.30 inRainRain
1:21 PM62.6 °F60.8 °F94 %29.70 in2.5 miSE (140°)19.6 mph34.5 mph0.08 inRainRain
1:42 PM64.4 °F62.6 °F94 %29.70 in1.2 miSE (130°)18.4 mph27.6 mph0.15 inRainHeavy Rain
1:53 PM64.0 °F62.1 °F93 %29.70 in2.5 miSSE (150°)17.3 mph28.8 mph0.24 inRainLight Rain
2:17 PM64.4 °F62.6 °F94 %29.70 in1.2 miSSE (150°)15.0 mph33.4 mph0.12 inRainHeavy Rain
2:29 PM64.4 °F62.6 °F94 %29.69 in2.0 miSSE (160°)18.4 mph32.2 mph0.18 inRainLight Rain
2:38 PM64.4 °F62.6 °F94 %29.68 in5.0 miSSE (160°)18.4 mph31.1 mph0.19 inRainLight Rain
2:53 PM64.9 °F63.0 °F93 %29.68 in9.0 miSouth (170°)15.0 mph32.2 mph0.19 inOvercast
3:53 PM66.0 °F64.0 °F93 %29.63 in7.0 miSSE (150°)10.4 mph24.2 mph0.01 inOvercast
4:01 PM66.2 °F62.6 °F88 %29.63 in6.0 miSSE (160°)13.8 mph20.7 mphOvercast
4:30 PM66.2 °F62.6 °F88 %29.62 in7.0 miSouth (170°)16.1 mph25.3 mphOvercast
4:53 PM66.9 °F63.0 °F87 %29.62 in7.0 miSouth (170°)17.3 mph26.5 mphOvercast
5:06 PM66.2 °F62.6 °F88 %29.62 in6.0 miSouth (170°)16.1 mph25.3 mphOvercast
5:13 PM66.2 °F62.6 °F88 %29.62 in6.0 miSouth (170°)15.0 mph23.0 mphOvercast
5:42 PM66.2 °F64.4 °F94 %29.62 in6.0 miSouth (180°)15.0 mphOvercast
5:49 PM68.0 °F64.4 °F88 %29.61 in6.0 miSouth (180°)16.1 mphOvercast
5:53 PM68.0 °F64.0 °F87 %29.62 in7.0 miSouth (190°)16.1 mphOvercast
6:39 PM68.0 °F64.4 °F88 %29.61 in8.0 miSouth (170°)12.7 mph18.4 mph0.01 inOvercast
6:53 PM68.0 °F64.9 °F90 %29.62 in8.0 miSouth (190°)10.4 mph0.01 inOvercast
7:53 PM68.0 °F63.0 °F84 %29.62 in10.0 miSSW (210°)17.3 mph29.9 mphMostly Cloudy
8:53 PM66.0 °F62.1 °F87 %29.63 in10.0 miSW (220°)12.7 mph29.9 mphScattered Clouds
9:53 PM64.0 °F60.1 °F87 %29.64 in10.0 miSW (220°)10.4 mphClear
10:53 PM64.0 °F55.9 °F75 %29.65 in10.0 miWSW (240°)13.8 mph19.6 mphClear
11:53 PM61.0 °F55.9 °F83 %29.65 in10.0 miWest (260°)10.4 mphPartly Cloudy
Hourly data recorded from KILM, located miles away from Wilmington, North Carolina







STORIES FROM OUR PARTNERS